[[{"header":{"parameterUnit":"m.s-1","parameterCategory":1,"la1":30.2991,"la2":30.254,"lo1":-89.0895,"lo2":-89.0444,"dy":0.0017,"dx":0.0017,"nx":28,"ny":28,"refTime":"2023-09-25T03:00:00:Z","depth":0,"parameterNumber":2,"parameterNumberName":"U-component_of_WINDS"},"data":[0,0,0,0,0,0,0,0,0,0,0,0,0,0,0,0,0,0,0,0,0,0,0,0,0,0,0,0,0,0,0,0,0,0,0,0,0,0,0,0,0,0,0,0,0,0,0,0,0,0,0,0,0,0,0,0,0,0,-0.2001,-0.2,0,-0.1935,-0.1934,-0.1934,-0.1885,-0.1885,-0.1884,-0.1884,-0.1817,-0.1816,-0.1815,0,0,0,0,0,0,0,0,0,0,0,0,0,-0.2088,-0.2087,-0.2001,-0.2,-0.1999,-0.1935,-0.1934,-0.1933,-0.1885,-0.1885,-0.1884,-0.1884,-0.1818,-0.1816,-0.1815,0,0,0,0,0,0,0,0,0,0,0,0,0,-0.2039,-0.2086,-0.2001,-0.1968,-0.1964,-0.1935,-0.1934,-0.1933,-0.1885,-0.1885,-0.1884,-0.1884,-0.1818,-0.1816,-0.1814,-0.1814,0,0,-0.1808,-0.1807,0,0,0,0,0,0,0,0,-0.2042,-0.2036,-0.1973,-0.197,-0.1966,-0.1918,-0.194,-0.1893,-0.1886,-0.1915,-0.1884,-0.1883,-0.1851,-0.1846,-0.1835,-0.1811,-0.1808,-0.1808,-0.1806,-0.1806,-0.1805,0,0,0,0,0,0,0,-0.2045,-0.2038,-0.1975,-0.1973,-0.1968,-0.1957,-0.1949,-0.1931,-0.1888,-0.1913,-0.1909,-0.1902,-0.1849,-0.1838,-0.1834,-0.1807,-0.1808,-0.1806,-0.1805,-0.1804,-0.1782,-0.1782,0,0,0,0,0,0,-0.2054,-0.2042,-0.1977,-0.1973,-0.2003,-0.1956,-0.1947,-0.1934,-0.1888,-0.188,-0.1902,-0.19,-0.1841,-0.1836,-0.1831,-0.183,-0.1806,-0.1804,-0.1802,-0.1781,-0.1782,-0.1783,0,0,0,0,0,0,-0.2056,-0.2048,-0.198,-0.2006,-0.1997,-0.1955,-0.194,-0.1933,-0.1921,-0.188,-0.1872,-0.1899,-0.1841,-0.1834,-0.1819,-0.1827,-0.1803,-0.1801,-0.178,-0.1781,-0.1782,-0.1826,0,0,0,0,0,0,-0.2058,-0.2049,-0.2048,-0.2007,-0.1995,-0.1968,-0.1941,-0.1932,-0.1918,-0.1914,-0.1874,-0.1867,-0.184,-0.1823,-0.1817,-0.1823,-0.1799,-0.1779,-0.1781,-0.1782,-0.1823,-0.1828,-0.1832,0,0,0,0,0,-0.2062,-0.2063,-0.2048,-0.2041,-0.1993,-0.1969,-0.1962,-0.1931,-0.1918,-0.1917,-0.1891,-0.1868,-0.1826,-0.1821,-0.1815,-0.1821,-0.1779,-0.178,-0.1782,-0.1821,-0.1827,-0.1832,0,0,0,0,0,0,-0.2106,-0.2056,-0.204,-0.2027,-0.2003,-0.1961,-0.1958,-0.1937,-0.1916,-0.1913,-0.1875,-0.1866,-0.1856,-0.1836,-0.1832,-0.1819,-0.18,-0.18,-0.1832,-0.1837,-0.1842,-0.1847,-0.1797,0,0,0,0,0,-0.2114,-0.2098,-0.2056,-0.2049,-0.2037,-0.2,-0.1988,-0.1966,-0.1939,-0.1929,-0.1901,-0.1876,-0.1858,-0.1846,-0.1827,-0.182,-0.1812,-0.1821,-0.1825,-0.1829,-0.183,-0.1828,-0.1832,-0.1787,-0.1787,-0.1787,0,0,-0.2131,-0.2102,-0.2094,-0.2057,-0.2035,-0.2021,-0.1992,-0.1977,-0.1966,-0.1926,-0.1911,-0.189,-0.186,-0.185,-0.1845,-0.1834,-0.1841,-0.1831,-0.1834,-0.1833,-0.183,-0.1834,-0.1838,-0.1788,-0.1788,-0.1788,0,0,-0.2154,-0.213,-0.2123,-0.2102,-0.2069,-0.2045,-0.2044,-0.2005,-0.199,-0.1974,-0.1945,-0.1932,-0.19,-0.1881,-0.1866,-0.1885,-0.1864,-0.188,-0.1903,-0.1901,-0.1905,-0.1908,-0.1916,-0.192,-0.1881,-0.1881,-0.1881,0,-0.2179,-0.2155,-0.2121,-0.2109,-0.2095,-0.2058,-0.2052,-0.2033,-0.1996,-0.1988,-0.1976,-0.1937,-0.1914,-0.1901,-0.1906,-0.1894,-0.1893,-0.1885,-0.1907,-0.1909,-0.1912,-0.192,-0.1923,-0.1883,-0.1883,-0.1883,-0.1883,0,-0.2189,-0.2173,-0.2171,-0.2137,-0.2122,-0.2113,-0.2079,-0.2068,-0.2048,-0.2025,-0.2011,-0.1982,-0.1957,-0.1952,-0.1932,-0.1936,-0.1931,-0.1914,-0.1894,-0.1919,-0.1926,-0.1928,-0.1887,-0.1886,-0.1885,-0.1885,0,0,-0.2237,-0.2186,-0.2186,-0.2172,-0.2134,-0.2122,-0.2112,-0.2087,-0.208,-0.2056,-0.2048,-0.2023,-0.2008,-0.1992,-0.1969,-0.1967,-0.1987,-0.195,-0.1949,-0.196,-0.1993,-0.2008,-0.2012,-0.1973,-0.1973,-0.1973,-0.1996,0,-0.2257,-0.2236,-0.2206,-0.2195,-0.2182,-0.2148,-0.214,-0.2117,-0.2096,-0.2082,-0.2059,-0.2043,-0.2022,-0.2013,-0.201,-0.1985,-0.1994,-0.1983,-0.1966,-0.1966,-0.1976,-0.2015,-0.203,-0.2053,-0.1999,-0.1999,-0.1999,0,-0.2275,-0.2255,-0.2243,-0.2209,-0.2202,-0.2195,-0.2172,-0.2158,-0.2133,-0.2118,-0.2102,-0.2077,-0.2067,-0.2048,-0.2034,-0.2028,-0.2019,-0.2006,-0.2007,-0.2005,-0.1985,-0.2016,-0.2059,-0.2063,-0.2003,-0.2003,-0.2002,0,-0.2315,-0.2283,-0.2273,-0.2261,-0.2221,-0.2217,-0.22,-0.2174,-0.2162,-0.2142,-0.2134,-0.2113,-0.2102,-0.2087,-0.2059,-0.2048,-0.2049,-0.2027,-0.2038,-0.2039,-0.204,-0.2041,-0.2084,-0.2032,-0.2032,-0.2032,-0.2032,0,-0.234,-0.2334,-0.229,-0.2284,-0.2278,-0.2245,-0.224,-0.222,-0.2197,-0.2188,-0.2157,-0.2149,-0.2112,-0.21,-0.2077,-0.2071,-0.2065,-0.2054,-0.2049,-0.2058,-0.2059,-0.2052,-0.2051,-0.2033,-0.2033,-0.2033,-0.2032,0,-0.2382,-0.2352,-0.2339,-0.2303,-0.2294,-0.2291,-0.226,-0.2254,-0.2232,-0.2221,-0.2216,-0.2182,-0.2166,-0.2136,-0.2112,-0.2098,-0.2096,-0.2085,-0.2105,-0.2102,-0.2115,-0.2115,-0.2157,-0.2162,-0.2105,-0.2106,-0.2106,0,-0.2401,-0.2396,-0.236,-0.2351,-0.2336,-0.2322,-0.2311,-0.2278,-0.2267,-0.2239,-0.2237,-0.2219,-0.2203,-0.2181,-0.2154,-0.2136,-0.2126,-0.2142,-0.2123,-0.2133,-0.2129,-0.213,-0.2131,-0.2147,-0.2147,-0.2148,-0.2148,0,-0.2438,-0.2424,-0.2408,-0.2388,-0.2375,-0.2357,-0.2338,-0.2333,-0.2296,-0.2286,-0.227,-0.2258,-0.2235,-0.2219,-0.2197,-0.2181,-0.216,-0.2155,-0.2156,-0.2166,-0.2179,-0.2175,-0.2119,-0.2154,-0.2153,-0.2153,-0.2153,-0.2152,-0.247,-0.2465,-0.244,-0.2424,-0.2406,-0.239,-0.2383,-0.2361,-0.2347,-0.2325,-0.2307,-0.2293,-0.227,-0.2239,-0.2225,-0.2215,-0.2204,-0.2206,-0.2207,-0.2208,-0.2213,-0.218,-0.221,-0.221,-0.221,-0.221,-0.221,0,-0.2507,-0.2489,-0.2475,-0.245,-0.2438,-0.2419,-0.2397,-0.2389,-0.2377,-0.2357,-0.2343,-0.2326,-0.2311,-0.2284,-0.2267,-0.2264,-0.2254,-0.2261,-0.2261,-0.2259,-0.2222,-0.2224,-0.2269,-0.2269,-0.2269,-0.2269,-0.2269,-0.2269,-0.2525,-0.2517,-0.25,-0.2484,-0.2467,-0.2453,-0.2443,-0.2429,-0.2413,-0.2395,-0.2383,-0.2365,-0.2343,-0.2324,-0.231,-0.2303,-0.2299,-0.2309,-0.2299,-0.2266,-0.2261,-0.2255,-0.2256,-0.2308,-0.2308,-0.2336,-0.2336,-0.2337]},{"header":{"parameterUnit":"m.s-1","parameterCategory":1,"la1":30.2991,"la2":30.254,"lo1":-89.0895,"lo2":-89.0444,"dy":0.0017,"dx":0.0017,"nx":28,"ny":28,"refTime":"2023-09-25T03:00:00:Z","depth":0,"parameterNumber":3,"parameterNumberName":"V-component_of_WINDS"},"data":[0,0,0,0,0,0,0,0,0,0,0,0,0,0,0,0,0,0,0,0,0,0,0,0,0,0,0,0,0,0,0,0,0,0,0,0,0,0,0,0,0,0,0,0,0,0,0,0,0,0,0,0,0,0,0,0,0,0,1.7326,1.7326,0,1.731,1.731,1.731,1.7331,1.7332,1.7333,1.7333,1.7312,1.7311,1.731,0,0,0,0,0,0,0,0,0,0,0,0,0,1.737,1.7369,1.7326,1.7326,1.7325,1.731,1.731,1.731,1.7331,1.7332,1.7333,1.7334,1.7313,1.7311,1.731,0,0,0,0,0,0,0,0,0,0,0,0,0,1.7352,1.7369,1.7326,1.7334,1.7335,1.731,1.731,1.731,1.7331,1.7332,1.7333,1.7334,1.7313,1.7312,1.731,1.7274,0,0,1.7304,1.7303,0,0,0,0,0,0,0,0,1.7353,1.735,1.7333,1.7334,1.7334,1.7324,1.7318,1.7298,1.7331,1.7332,1.7334,1.7335,1.7315,1.7313,1.7307,1.7273,1.7273,1.7304,1.7302,1.7302,1.7301,0,0,0,0,0,0,0,1.7354,1.7351,1.7319,1.7333,1.7334,1.7338,1.7336,1.7314,1.7317,1.7332,1.7334,1.7332,1.7315,1.7309,1.7307,1.7272,1.7304,1.7302,1.7301,1.73,1.7208,1.7206,0,0,0,0,0,0,1.7355,1.7352,1.732,1.7319,1.7347,1.7336,1.7334,1.7326,1.7317,1.7317,1.7331,1.7333,1.7312,1.7309,1.7306,1.7264,1.7302,1.73,1.7299,1.7209,1.7207,1.7206,0,0,0,0,0,0,1.7356,1.7352,1.7321,1.7336,1.7332,1.7334,1.7324,1.7325,1.7319,1.7317,1.7317,1.7324,1.7313,1.7309,1.7282,1.7263,1.7299,1.7297,1.7211,1.7209,1.7207,1.7178,0,0,0,0,0,0,1.7357,1.7352,1.734,1.7336,1.7331,1.7298,1.7323,1.7324,1.7316,1.7319,1.731,1.731,1.7313,1.7285,1.728,1.7261,1.7296,1.7212,1.721,1.7207,1.7181,1.7176,1.7171,0,0,0,0,0,1.7359,1.7331,1.7339,1.7335,1.7316,1.7297,1.7294,1.73,1.7314,1.7301,1.73,1.731,1.7267,1.7282,1.7277,1.7257,1.7213,1.721,1.7208,1.7183,1.7177,1.7171,0,0,0,0,0,0,1.7331,1.7331,1.7339,1.731,1.7304,1.7301,1.7284,1.7293,1.7281,1.7284,1.729,1.7288,1.726,1.7256,1.7273,1.7222,1.7242,1.7238,1.7225,1.7219,1.7214,1.7215,1.7294,0,0,0,0,0,1.7322,1.7308,1.7308,1.7282,1.7279,1.7282,1.7274,1.7279,1.7272,1.7269,1.7265,1.7257,1.7241,1.723,1.7216,1.7181,1.7179,1.7165,1.716,1.7156,1.7152,1.7132,1.7126,1.7196,1.7196,1.7197,0,0,1.7302,1.7301,1.7291,1.7277,1.7272,1.7256,1.7279,1.7261,1.7249,1.7265,1.724,1.7237,1.7228,1.7197,1.7183,1.7193,1.7132,1.7152,1.7149,1.7147,1.7129,1.7122,1.7116,1.7194,1.7195,1.7195,0,0,1.7258,1.7256,1.7234,1.723,1.7223,1.7226,1.7221,1.7216,1.7216,1.7191,1.7203,1.7188,1.7161,1.7154,1.7146,1.71,1.7109,1.7095,1.7069,1.705,1.7044,1.7039,1.7021,1.7015,1.7092,1.7091,1.7091,0,1.7234,1.7211,1.7221,1.7202,1.7195,1.7212,1.7189,1.7184,1.7172,1.7166,1.7178,1.7145,1.7139,1.7107,1.7096,1.709,1.7083,1.7095,1.7045,1.704,1.7035,1.7018,1.7011,1.709,1.709,1.709,1.709,0,1.7181,1.7165,1.7148,1.7138,1.7129,1.7108,1.7114,1.7104,1.711,1.7111,1.7085,1.708,1.7064,1.7058,1.7063,1.7025,1.7031,1.7044,1.7064,1.7026,1.701,1.7004,1.7087,1.7088,1.7088,1.7089,0,0,1.7117,1.7114,1.7107,1.7103,1.7098,1.7085,1.7065,1.7051,1.7041,1.7033,1.7015,1.6993,1.7005,1.6996,1.7001,1.6985,1.6947,1.6999,1.6999,1.6988,1.6903,1.6893,1.6885,1.6954,1.6953,1.6952,1.6904,0,1.7071,1.7037,1.7046,1.7012,1.6996,1.7013,1.6995,1.6989,1.699,1.6976,1.6976,1.6959,1.6977,1.6972,1.6957,1.6955,1.693,1.6959,1.6935,1.6934,1.6935,1.6877,1.6865,1.682,1.6898,1.6897,1.6896,0,1.7013,1.7004,1.6969,1.6966,1.696,1.6944,1.6932,1.692,1.6913,1.6915,1.6906,1.6915,1.6893,1.6915,1.6884,1.6904,1.6895,1.6893,1.6891,1.6887,1.6911,1.6869,1.6806,1.6798,1.6886,1.6887,1.6888,0,1.6967,1.6947,1.6923,1.6919,1.6916,1.6904,1.6902,1.6897,1.6888,1.6878,1.6872,1.6858,1.685,1.6839,1.6843,1.6859,1.6811,1.6834,1.681,1.681,1.6797,1.6797,1.6729,1.6795,1.6795,1.6795,1.6795,0,1.6914,1.6891,1.6903,1.6887,1.6862,1.6872,1.6847,1.6846,1.6842,1.6826,1.6839,1.6824,1.6831,1.6816,1.6819,1.6792,1.6789,1.6788,1.6789,1.6786,1.6785,1.6778,1.678,1.6793,1.6794,1.6794,1.6794,0,1.6858,1.6865,1.684,1.684,1.6839,1.682,1.6819,1.6804,1.6807,1.6787,1.6782,1.6785,1.6768,1.6772,1.6752,1.6755,1.672,1.6726,1.6723,1.6723,1.6699,1.67,1.6621,1.661,1.6685,1.6685,1.6684,0,1.6823,1.6806,1.6804,1.6796,1.6793,1.6778,1.677,1.678,1.677,1.6762,1.6748,1.6732,1.672,1.6691,1.6691,1.6676,1.668,1.6653,1.6677,1.6674,1.6677,1.6677,1.6674,1.6647,1.6647,1.6646,1.6645,0,1.6759,1.6763,1.6752,1.6741,1.6731,1.6723,1.6716,1.6708,1.6717,1.6705,1.6689,1.668,1.6661,1.6644,1.6631,1.6627,1.6636,1.6638,1.6632,1.6627,1.6625,1.6624,1.6707,1.6639,1.664,1.664,1.6641,1.6641,1.671,1.6696,1.6693,1.6679,1.6676,1.6669,1.6655,1.6657,1.6643,1.663,1.6636,1.6617,1.661,1.6593,1.6588,1.6572,1.6581,1.6572,1.6569,1.6566,1.6562,1.663,1.6569,1.657,1.657,1.657,1.657,0,1.6645,1.6645,1.6632,1.6623,1.6612,1.6625,1.6618,1.6608,1.6591,1.6585,1.6574,1.6554,1.6538,1.6537,1.6522,1.6509,1.6513,1.6505,1.6504,1.6503,1.6556,1.6562,1.6502,1.6502,1.6502,1.6502,1.6502,1.6502,1.661,1.6586,1.659,1.6564,1.6563,1.6545,1.654,1.6533,1.6529,1.6507,1.6495,1.6495,1.649,1.6476,1.6461,1.6461,1.6454,1.6443,1.6445,1.6493,1.65,1.6506,1.6512,1.6442,1.6442,1.6393,1.6393,1.6392]}]]